User: anonymous   Login
Location: Caltech
(34.1382°N, 118.1253°W)
Time: 05:33:25
(UTC-07:00)
Language:

NOSS 3-2 (A) - Orbit

View from above orbital plane
View from above orbital plane
View from above satellite
View from above satellite

Ground track
Ground track

The orbit data is extracted from the following two-line orbital elements,

1 28095U 03054A   17198.92643451 0.00000000  00000-0  00000-0 0    09
2 28095  63.4194 233.7489 0306000 358.3012   1.6988 13.41350105    05
Epoch (UTC): 17 July 2017 22:14:03
Eccentricity: 0.0306000
inclination: 63.4194°
perigee height: 875 km
apogee height: 1333 km
right ascension of ascending node: 233.7489°
argument of perigee: 358.3012°
revolutions per day: 13.41350105
mean anomaly at epoch: 1.6988°
orbit number at epoch: 0

The dashed part of the orbit path shows where the satellite is in the earth's shadow,  

DLR